Regional Weather Roundup
Issued by NWS Jackson, KY

Home | Current Version | Previous Version | Graphics & Text | Print | Product List | Glossary On
Versions: 1 2 3 4 5 6 7 8 9 10 11 12 13 14 15 16 17 18 19 20 21 22 23 24 25 26 27
000
ASUS43 KJKL 210910
RWRJKL

EAST KENTUCKY HOURLY WEATHER ROUNDUP
NATIONAL WEATHER SERVICE JACKSON KY
500 AM EDT MON AUG 21 2017

NOTE: "FAIR" INDICATES FEW OR NO CLOUDS BELOW 12,000 FEET WITH
NO SIGNIFICANT WEATHER AND/OR OBSTRUCTIONS TO VISIBILITY.

* THESE REPORTS ARE NOT UNDER NWS QUALITY CONTROL AND MAY NOT
  REPORT WEATHER SUCH AS PRECIPITATION AND FOG.

KYZ079-080-083-085-087-088-110-112-115-119-120-211000
...EASTERN KENTUCKY...

CITY           SKY/WX    TMP DP  RH WIND       PRES   REMARKS
JACKSON        CLEAR     71  67  87 CALM      30.19S
LONDON         CLEAR     67  65  93 CALM      30.18S
SOMERSET*      CLEAR     64  64 100 CALM      30.18S
MONTICELLO*    CLEAR     65  64  97 CALM      30.18S
WILLIAMSBURG*  PTSUNNY   66  66 100 S5        30.19R VSB 1
MIDDLESBORO*   CLOUDY    66  66 100 CALM      30.21S FOG
HARLAN APT*    CLOUDY    68  64  88 CALM      30.22S VSB 3/4
PIKE CO APT*     N/A     69  69 100 S5        30.20S
BIG SANDY APT* SUNNY     69  69 100 CALM      30.19R FOG
MOREHEAD APT*  SUNNY     70  66  88 CALM      30.18S
$$

KYZ035-036-041-042-044-050-067-078-099-211000
...CENTRAL KENTUCKY...

CITY           SKY/WX    TMP DP  RH WIND       PRES   REMARKS
MT STERLING*   CLEAR     66  64  94 CALM      30.18S FOG
FLEMING/MASON* CLEAR     71  68  93 S7        30.16S
DANVILLE*      PTCLDY    64  64 100 S3        30.18R
LEXINGTON      CLEAR     70  65  84 S7        30.16S
FRANKFORT      CLEAR     69  65  86 CALM      30.14R
LOUISVILLE     PTCLDY    75  69  81 VRB3      30.12S
LEBANON*         N/A     68  66  94 CALM      30.15S
GLASGOW*       PTCLDY    67  67 100 CALM      30.14S
BOWLING GREEN  PTCLDY    70  69  97 CALM      30.13S
$$

KYZ091>093-OHZ055-061-077-WVZ005-015-034-035-042-211000
...SOUTHERN OHIO/WEST VIRGINIA...

CITY           SKY/WX    TMP DP  RH WIND       PRES   REMARKS
COVINGTON      PTCLDY    72  69  90 SW6       30.13S
COLUMBUS       CLOUDY    72  70  93 SE3       30.12F
DAYTON         CLOUDY    74  65  73 SW8       30.13S
WILMINGTON     PTCLDY    70  69  97 SW3       30.14S
HUNTINGTON     CLEAR     68  66  93 E3        30.15S FOG
CHARLESTON     PTCLDY    67  66  97 CALM      30.18R FOG
PINEVILLE*     CLOUDY    64  63  96 MISG      30.28R
BECKLEY        MOCLDY    70  64  81 SE8       30.26S
BLUEFIELD      CLEAR     69  62  78 VRB5      30.29S
LOGAN CO APT*    N/A     68  66  94 CALM      30.21R
$$

VAZ002-007-008-TNZ017-027-036-066-071-211000
...SOUTHWEST VIRGINIA/EAST TENNESSEE...

CITY           SKY/WX    TMP DP  RH WIND       PRES   REMARKS
WISE*          CLOUDY    70  61  73 S3        30.29R
JONESVILLE*      N/A     64  64 100 CALM      30.23S FOG
ABINGDON*      CLEAR     70  68  93 CALM      30.25S
BRISTOL        CLEAR     68  66  93 CALM      30.22R
MORRISTOWN*    SUNNY     70  66  88 E3        30.19R
SEVIERVILLE*   SUNNY     66  66 100 CALM      30.18R
KNOXVILLE      CLEAR     70  67  90 CALM      30.17R
LAFOLLETTE*    FOG       66  66 100 CALM      30.22S VSB 1/2
OAK RIDGE      PTCLDY    70  68  93 CALM      30.19S
CROSSVILLE     CLEAR     66  64  93 CALM      30.22S
NASHVILLE      PTCLDY    73  69  87 CALM      30.13S
$$

...KEY TO REMARKS...
VSB - VISIBILITY IN MILES
WCI - WIND CHILL INDEX
HX  - HEAT INDEX

$$




USA.gov is the U.S. government's official web portal to all federal, state and local government web resources and services.